Port Orchard, Washington, United States (98366)
Lat: 47.54N, Lon: 122.64W
Wx Zone: WAZ508
Local Info
Past Weather Observations for Sunday, April 13, 2014

NOTE: This archive is for the closest National Weather Service station to Port Orchard. Information may differ from the station used for current weather conditions.

Time Weather Temperature Dewpoint Humidity Pressure Winds Precip Visibility
23:55
Clear
39°F / 4°C 36°F / 2°C 87% 30.21 in
(1023 mb)
Calm - 10SM
23:35
Clear
39°F / 4°C 34°F / 1°C 81% 30.21 in
(1023 mb)
Calm - 10SM
23:15
Clear
41°F / 5°C 34°F / 1°C 76% 30.21 in
(1023 mb)
Calm - 10SM
22:55
Clear
43°F / 6°C 34°F / 1°C 71% 30.21 in
(1023 mb)
Calm - 10SM
22:35
Clear
43°F / 6°C 34°F / 1°C 71% 30.21 in
(1023 mb)
Calm - 10SM
22:15
Clear
45°F / 7°C 37°F / 3°C 76% 30.21 in
(1023 mb)
Calm - 10SM
21:55
Clear
45°F / 7°C 34°F / 1°C 66% 30.24 in
(1024 mb)
Calm - 10SM
21:35
Clear
50°F / 10°C 34°F / 1°C 54% 30.24 in
(1024 mb)
NNE 3.5 mph
(NNE 6 kph)
- 10SM
21:15
Clear
54°F / 12°C 34°F / 1°C 47% 30.24 in
(1024 mb)
NE 8.1 mph
(NE 13 kph)
- 10SM
20:55
Clear
54°F / 12°C 36°F / 2°C 51% 30.24 in
(1024 mb)
NE 8.1 mph
(NE 13 kph)
- 10SM
20:35
Clear
54°F / 12°C 30°F / -1°C 41% 30.24 in
(1024 mb)
NE 6.9 mph
(NE 11 kph)
- 10SM
20:15
Clear
54°F / 12°C 30°F / -1°C 41% 30.24 in
(1024 mb)
NE 6.9 mph
(NE 11 kph)
- 10SM
19:55
Clear
54°F / 12°C 34°F / 1°C 47% 30.24 in
(1024 mb)
NE 8.1 mph
(NE 13 kph)
- 10SM
19:35
Clear
55°F / 13°C 32°F / 0°C 41% 30.24 in
(1024 mb)
NNE 3.5 mph
(NNE 6 kph)
- 10SM
19:15
Clear
55°F / 13°C 34°F / 1°C 44% 30.24 in
(1024 mb)
NE 4.6 mph
(NE 7 kph)
- 10SM
18:55
Clear
55°F / 13°C 34°F / 1°C 44% 30.21 in
(1023 mb)
NNE 8.1 mph
(NNE 13 kph)
- 10SM
18:35
Clear
61°F / 16°C 34°F / 1°C 36% 30.21 in
(1023 mb)
NNE 6.9 mph
(NNE 11 kph)
- 10SM
18:15
Clear
63°F / 17°C 32°F / 0°C 32% 30.24 in
(1024 mb)
NNE 5.8 mph
(NNE 9 kph)
- 10SM
17:55
Clear
64°F / 18°C 30°F / -1°C 28% 30.24 in
(1024 mb)
N 6.9 mph
(N 11 kph)
- 10SM
17:35
Clear
66°F / 19°C 32°F / 0°C 28% 30.24 in
(1024 mb)
N 9.2 mph
(N 15 kph)
- 10SM
17:15
Clear
66°F / 19°C 28°F / -2°C 24% 30.24 in
(1024 mb)
N 8.1 mph
(N 13 kph)
- 10SM
16:55
Clear
66°F / 19°C 27°F / -3°C 22% 30.24 in
(1024 mb)
NE 5.8 mph
(NE 9 kph)
- 10SM
16:35
Clear
68°F / 20°C 27°F / -3°C 21% 30.24 in
(1024 mb)
NE 8.1 mph
(NE 13 kph)
- 10SM
16:15
Clear
68°F / 20°C 28°F / -2°C 23% 30.27 in
(1025 mb)
N 4.6 mph
(N 7 kph)
- 10SM
15:55
Clear
66°F / 19°C 27°F / -3°C 22% 30.27 in
(1025 mb)
NE 6.9 mph
(NE 11 kph)
- 10SM
15:35
Clear
66°F / 19°C 25°F / -4°C 21% 30.27 in
(1025 mb)
N 5.8 mph
(N 9 kph)
- 10SM
15:15
Clear
68°F / 20°C 28°F / -2°C 23% 30.27 in
(1025 mb)
N 6.9 mph
(N 11 kph)
- 10SM
14:55
Clear
68°F / 20°C 27°F / -3°C 21% 30.27 in
(1025 mb)
N 8.1 mph
(N 13 kph)
- 10SM
14:35
Clear
66°F / 19°C 28°F / -2°C 24% 30.3 in
(1026 mb)
NE 8.1 mph
(NE 13 kph)
- 10SM
14:15
Clear
66°F / 19°C 27°F / -3°C 22% 30.3 in
(1026 mb)
NE 5.8 mph
(NE 9 kph)
- 10SM
13:55
Clear
66°F / 19°C 25°F / -4°C 21% 30.3 in
(1026 mb)
NNE 5.8 mph
(NNE 9 kph)
- 10SM
13:35
Clear
66°F / 19°C 27°F / -3°C 22% 30.3 in
(1026 mb)
NNE 9.2 mph
(NNE 15 kph)
- 10SM
13:15
Clear
66°F / 19°C 32°F / 0°C 28% 30.3 in
(1026 mb)
NE 9.2 mph
(NE 15 kph)
- 10SM
12:55
Clear
64°F / 18°C 32°F / 0°C 30% 30.3 in
(1026 mb)
ENE 6.9 mph
(ENE 11 kph)
- 10SM
12:35
Clear
64°F / 18°C 34°F / 1°C 32% 30.33 in
(1027 mb)
N 8.1 mph
(N 13 kph)
- 10SM
12:15
Clear
64°F / 18°C 32°F / 0°C 30% 30.33 in
(1027 mb)
NE 11.5 mph
(NE 19 kph)
- 10SM
11:55
Clear
63°F / 17°C 32°F / 0°C 32% 30.33 in
(1027 mb)
E 5.8 mph
(E 9 kph)
- 10SM
11:35
Clear
63°F / 17°C 34°F / 1°C 34% 30.33 in
(1027 mb)
NE 10.4 mph
(NE 17 kph)
- 10SM
11:15
Clear
63°F / 17°C 36°F / 2°C 37% 30.33 in
(1027 mb)
N 6.9 mph
(N 11 kph)
- 10SM
10:55
Clear
63°F / 17°C 37°F / 3°C 39% 30.33 in
(1027 mb)
N 9.2 mph
(N 15 kph)
- 10SM
10:35
Clear
61°F / 16°C 37°F / 3°C 42% 30.33 in
(1027 mb)
N 9.2 mph
(N 15 kph)
- 10SM
10:15
Clear
61°F / 16°C 39°F / 4°C 45% 30.33 in
(1027 mb)
NE 10.4 mph
(NE 17 kph)
- 10SM
09:55
Clear
59°F / 15°C 39°F / 4°C 48% 30.33 in
(1027 mb)
NE 10.4 mph
(NE 17 kph)
- 10SM
09:35
Clear
57°F / 14°C 39°F / 4°C 51% 30.33 in
(1027 mb)
NNE 12.7 mph
(NNE 20 kph)
- 10SM
09:15
Clear
57°F / 14°C 37°F / 3°C 48% 30.33 in
(1027 mb)
NE 13.8 mph
(NE 22 kph)
- 10SM
08:55
Clear
55°F / 13°C 37°F / 3°C 51% 30.33 in
(1027 mb)
NE 11.5 mph
(NE 19 kph)
- 10SM
08:35
Clear
54°F / 12°C 39°F / 4°C 58% 30.33 in
(1027 mb)
NE 11.5 mph
(NE 19 kph)
- 10SM
08:15
Clear
54°F / 12°C 39°F / 4°C 58% 30.3 in
(1026 mb)
NE 11.5 mph
(NE 19 kph)
- 10SM
07:55
Clear
52°F / 11°C 39°F / 4°C 62% 30.3 in
(1026 mb)
NE 13.8 mph
(NE 22 kph)
- 10SM
07:35
Clear
50°F / 10°C 39°F / 4°C 67% 30.3 in
(1026 mb)
NE 13.8 mph
(NE 22 kph)
- 10SM
07:15
Clear
48°F / 9°C 41°F / 5°C 76% 30.3 in
(1026 mb)
NE 11.5 mph
(NE 19 kph)
- 10SM
06:55
Clear
46°F / 8°C 41°F / 5°C 82% 30.3 in
(1026 mb)
NNE 12.7 mph
(NNE 20 kph)
- 10SM
06:35
Clear
46°F / 8°C 41°F / 5°C 82% 30.3 in
(1026 mb)
NE 10.4 mph
(NE 17 kph)
- 10SM
06:15
Clear
46°F / 8°C 39°F / 4°C 76% 30.3 in
(1026 mb)
NE 12.7 mph
(NE 20 kph)
- 10SM
05:55
Clear
45°F / 7°C 39°F / 4°C 81% 30.3 in
(1026 mb)
NE 10.4 mph
(NE 17 kph)
- 10SM
05:35
Clear
45°F / 7°C 39°F / 4°C 81% 30.27 in
(1025 mb)
NNE 11.5 mph
(NNE 19 kph)
- 10SM
05:15
Clear
45°F / 7°C 41°F / 5°C 87% 30.27 in
(1025 mb)
NE 11.5 mph
(NE 19 kph)
- 10SM
04:55
Clear
45°F / 7°C 41°F / 5°C 87% 30.27 in
(1025 mb)
NE 11.5 mph
(NE 19 kph)
- 10SM
04:35
Clear
45°F / 7°C 41°F / 5°C 87% 30.27 in
(1025 mb)
NE 11.5 mph
(NE 19 kph)
- 10SM
04:15
Clear
43°F / 6°C 41°F / 5°C 93% 30.27 in
(1025 mb)
NNE 10.4 mph
(NNE 17 kph)
- 10SM
03:55
Clear
36°F / 2°C 36°F / 2°C 100% 30.27 in
(1025 mb)
NE 4.6 mph
(NE 7 kph)
- 10SM
03:35
Clear
36°F / 2°C 36°F / 2°C 100% 30.27 in
(1025 mb)
Calm - 10SM
03:15
Clear
36°F / 2°C 36°F / 2°C 100% 30.27 in
(1025 mb)
Calm - 10SM
02:55
Clear
36°F / 2°C 36°F / 2°C 100% 30.27 in
(1025 mb)
ESE 3.5 mph
(ESE 6 kph)
- 10SM
02:35
Clear
36°F / 2°C 36°F / 2°C 100% 30.27 in
(1025 mb)
Calm - 10SM
02:15
Clear
36°F / 2°C 34°F / 1°C 93% 30.24 in
(1024 mb)
Calm - 10SM
01:55
Clear
36°F / 2°C 34°F / 1°C 93% 30.27 in
(1025 mb)
Calm - 10SM
01:35
Clear
36°F / 2°C 34°F / 1°C 93% 30.24 in
(1024 mb)
Calm - 10SM
01:15
Clear
36°F / 2°C 34°F / 1°C 93% 30.24 in
(1024 mb)
Calm - 10SM
00:55
Clear
37°F / 3°C 36°F / 2°C 93% 30.24 in
(1024 mb)
Calm - 10SM
00:35
Clear
41°F / 5°C 37°F / 3°C 87% 30.24 in
(1024 mb)
Calm - 10SM
00:15
Clear
43°F / 6°C 37°F / 3°C 81% 30.24 in
(1024 mb)
SE 5.8 mph
(SE 9 kph)
- 10SM
Time Weather Temperature Dewpoint Humidity Pressure Winds Precip Visibility


Weather for websites

WeatherForYou.com, LLC is not responsible for any damages or problems caused by this service. Current weather conditions are obtained from the closest station including government and personal stations which may have varying degrees of accuracy. Weather forecasts are derived from the NOAA NDFD. Like all things, this site belongs to Jesus Christ... He just trusts me to maintain it. If you have any questions or comments email webmaster@weatherforyou.com

Copyright © 2014, WeatherForYou.com LLC. All rights reserved.